Location: St. Louis
(38.6270°N, 90.1994°W)
Time: 19:25:22
(UTC-06:00)

Tiros 1 despin weight - Pass Details

Date: 08 December 2021
Orbit: 592 x 641 km, 48.2° (Epoch: 18 January)

Event Time Altitude Azimuth Distance (km) Brightness Sun altitude
Rises 16:56:06 0° 302° (WNW) 2,825 ? -3.7°
Reaches altitude 10° 16:58:23 10° 303° (WNW) 1,921 ? -4.1°
Maximum altitude 17:02:47 87° 31° (NNE) 597 ? -4.9°
Drops below altitude 10° 17:07:12 10° 122° (ESE) 1,921 ? -5.7°
Sets 17:09:29 0° 123° (ESE) 2,826 ? -6.1°
